Flag for Norway Weather past 2 weeks in Lillesand, Norway

Now
55 °F

Cool.


Feels Like: 51 °F
Forecast: 43 / 51 °F
Wind: 15 mph from Northeast

Location: Kristiansand / Kjevik


UV Index: 0 (Low)

Visibility: N/A


Pressure: 30.33 "Hg

Humidity: 35%

Dew point: 28 °F

Location of LillesandLocation

Historic Weather in Lillesand

°F

Lillesand temperature yesterday

Maximum temperature yesterday: 62 °F (at 6:00 PM)
Minimum temperature yesterday: 48 °F (at 4:00 AM)
Average temperature yesterday: 56 °F

Past Weeks' High & Low Weather Summary

 TemperatureHumidityPressure
High65 °F (Apr 21, 3:00 PM)100% (Apr 10, 9:00 PM)30.36 "Hg (Apr 10, 9:00 PM)
Low31 °F (Apr 11, 6:00 AM)24% (Apr 15, 1:00 PM)29.44 "Hg (Apr 14, 4:00 AM)
Average47 °F69%29.99 "Hg
* Reported Apr 8 1:00 PM — Apr 23 1:00 PM, Lillesand, Weather by CustomWeather, © 2014

Note: Actual official high and low records may vary slightly from our data, if they occured in-between our weather recording intervals... More about our weather records

Advertising

Historic Weather Conditions — Data for Previous 24 hours

 ConditionsComfort  
Time TempWeatherWind HumidityBarometerVisibility
1:00 PM
Apr 23
56 °FRefreshingly cool.12 mph35%30.33 "HgN/A
12:00 PM54 °FCool.13 mph38%30.33 "HgN/A
11:00 AM53 °FCool.10 mph45%30.33 "HgN/A
10:00 AM53 °FCool.12 mph49%30.30 "HgN/A
9:00 AM53 °FCool.10 mph55%30.29 "HgN/A
8:00 AM53 °FCool.9 mph58%30.27 "HgN/A
7:00 AM53 °FCool.6 mph59%30.25 "HgN/A
6:00 AM54 °FCool.7 mph51%30.23 "HgN/A
5:00 AM54 °FCool.8 mph52%30.22 "HgN/A
4:00 AM55 °FRefreshingly cool.8 mph51%30.19 "HgN/A
3:00 AM57 °FRefreshingly cool.6 mph49%30.18 "HgN/A
2:00 AM57 °FRefreshingly cool.6 mph52%30.17 "HgN/A
1:00 AM57 °FRefreshingly cool.5 mph55%30.16 "HgN/A
12:00 AM58 °FRefreshingly cool.6 mph51%30.14 "HgN/A
11:00 PM
Apr 22
58 °FRefreshingly cool.6 mph49%30.14 "HgN/A
10:00 PM58 °FRefreshingly cool.6 mph48%30.12 "HgN/A
9:00 PM59 °FRefreshingly cool.6 mph45%30.11 "HgN/A
8:00 PM60 °FRefreshingly cool.7 mph42%30.10 "HgN/A
7:00 PM60 °FRefreshingly cool.9 mph41%30.09 "HgN/A
6:00 PM62 °FRefreshingly cool.9 mph38%30.09 "HgN/A
5:00 PM62 °FRefreshingly cool.12 mph39%30.09 "HgN/A
4:00 PM62 °FRefreshingly cool.12 mph38%30.09 "HgN/A
3:00 PM60 °FRefreshingly cool.10 mph41%30.09 "HgN/A
2:00 PM60 °FRefreshingly cool.12 mph37%30.10 "HgN/A
Weather by CustomWeather, © 2014

See weather overview